Time,TemperatureF,DewpointF,PressureIn,WindDirection,WindDirectionDegrees,WindSpeedMPH,WindSpeedGustMPH,Humidity,HourlyPrecipIn,Conditions,Clouds,dailyrainin,SoftwareType,DateUTC
2013-02-22 00:00:00,25.2,3.3,29.12,SSE,150,1.3,3.6,34,0.00,,,0.00,WSDL version 420,2013-02-22 05:00:00,
2013-02-22 00:01:00,25.2,3.3,29.12,SSE,149,2.0,3.1,34,0.00,,,0.00,WSDL version 420,2013-02-22 05:01:00,
2013-02-22 00:06:00,25.2,3.3,29.15,SSE,158,0.6,3.1,34,-99.99,,,-99.99,WSDL version 420,2013-02-22 05:06:00,
2013-02-22 00:09:00,25.3,3.4,29.15,SSE,158,0.7,3.1,34,0.00,,,0.00,WSDL version 420,2013-02-22 05:09:00,
2013-02-22 00:14:00,25.3,3.1,29.15,NE,56,0.8,2.5,33,-99.99,,,-99.99,WSDL version 420,2013-02-22 05:14:00,
2013-02-22 00:16:00,25.3,2.9,29.15,ESE,110,1.7,2.5,33,-99.99,,,-99.99,WSDL version 420,2013-02-22 05:16:00,
2013-02-22 00:21:00,25.3,2.9,29.15,ESE,113,0.6,2.5,33,0.00,,,0.00,WSDL version 420,2013-02-22 05:21:00,
2013-02-22 00:26:00,25.3,2.9,29.15,SSE,164,0.0,1.6,33,-99.99,,,-99.99,WSDL version 420,2013-02-22 05:26:00,
2013-02-22 00:31:00,25.3,2.9,29.15,ESE,121,0.8,2.2,33,0.00,,,0.00,WSDL version 420,2013-02-22 05:31:00,
2013-02-22 00:36:00,25.3,2.9,29.15,SE,125,0.2,2.2,33,0.00,,,0.00,WSDL version 420,2013-02-22 05:36:00,
2013-02-22 00:41:00,25.5,3.0,29.15,SE,135,0.0,2.0,33,-99.99,,,-99.99,WSDL version 420,2013-02-22 05:41:00,
2013-02-22 00:46:00,25.5,3.0,29.15,SSE,149,1.3,2.2,33,-99.99,,,-99.99,WSDL version 420,2013-02-22 05:46:00,
2013-02-22 00:51:00,25.5,3.0,29.12,SE,129,0.9,2.2,33,0.00,,,0.00,WSDL version 420,2013-02-22 05:51:00,
2013-02-22 00:56:00,25.5,3.0,29.12,SE,135,1.3,2.7,33,0.00,,,0.00,WSDL version 420,2013-02-22 05:56:00,
2013-02-22 01:01:00,25.5,3.0,29.12,SE,138,1.6,2.7,33,-99.99,,,-99.99,WSDL version 420,2013-02-22 06:01:00,
2013-02-22 01:06:00,25.5,3.0,29.12,South,180,0.0,2.7,33,0.00,,,0.00,WSDL version 420,2013-02-22 06:06:00,
2013-02-22 01:11:00,25.6,3.1,29.12,South,180,0.0,2.5,33,-99.99,,,-99.99,WSDL version 420,2013-02-22 06:11:00,
2013-02-22 01:16:00,25.7,3.2,29.12,SE,133,0.1,2.7,33,0.00,,,0.00,WSDL version 420,2013-02-22 06:16:00,
2013-02-22 01:21:00,25.7,3.2,29.15,SE,143,0.7,2.7,33,-99.99,,,-99.99,WSDL version 420,2013-02-22 06:21:00,
2013-02-22 01:26:00,25.7,3.2,29.15,SE,145,2.1,3.4,33,0.00,,,0.00,WSDL version 420,2013-02-22 06:26:00,
2013-02-22 01:31:00,25.7,3.2,29.15,ESE,119,2.2,3.4,33,0.00,,,0.00,WSDL version 420,2013-02-22 06:31:00,
2013-02-22 01:36:00,25.9,3.3,29.15,SE,135,2.4,3.4,33,-99.99,,,-99.99,WSDL version 420,2013-02-22 06:36:00,
2013-02-22 01:41:00,25.9,3.3,29.15,SE,138,2.1,3.1,33,-99.99,,,-99.99,WSDL version 420,2013-02-22 06:41:00,
2013-02-22 01:46:00,25.9,3.3,29.15,SE,135,1.2,3.1,33,0.00,,,0.00,WSDL version 420,2013-02-22 06:46:00,
2013-02-22 01:51:00,26.0,3.5,29.12,SE,141,2.1,2.7,33,0.00,,,0.00,WSDL version 420,2013-02-22 06:51:00,
2013-02-22 01:56:00,26.1,3.5,29.12,SE,135,1.4,3.1,33,0.00,,,0.00,WSDL version 420,2013-02-22 06:56:00,
2013-02-22 02:01:00,26.1,3.5,29.12,ESE,107,2.2,4.9,33,0.00,,,0.00,WSDL version 420,2013-02-22 07:01:00,
2013-02-22 02:06:00,25.9,3.3,29.12,SE,145,2.6,4.9,33,0.00,,,0.00,WSDL version 420,2013-02-22 07:06:00,
2013-02-22 02:11:00,25.9,3.3,29.12,ESE,105,3.0,3.8,33,0.00,,,0.00,WSDL version 420,2013-02-22 07:11:00,
2013-02-22 02:16:00,25.9,3.3,29.12,ESE,113,2.9,5.8,33,-99.99,,,-99.99,WSDL version 420,2013-02-22 07:16:00,
2013-02-22 02:21:00,25.9,3.4,29.12,SE,129,2.1,5.8,33,-99.99,,,-99.99,WSDL version 420,2013-02-22 07:21:00,
2013-02-22 02:26:00,26.1,3.5,29.12,SE,125,2.7,5.6,33,-99.99,,,-99.99,WSDL version 420,2013-02-22 07:26:00,
2013-02-22 02:31:00,26.1,3.5,29.12,ESE,120,3.0,4.3,33,-99.99,,,-99.99,WSDL version 420,2013-02-22 07:31:00,
2013-02-22 02:36:00,26.1,3.5,29.09,ESE,115,3.1,4.7,33,-99.99,,,-99.99,WSDL version 420,2013-02-22 07:36:00,
2013-02-22 02:41:00,26.1,3.5,29.09,ESE,108,2.6,4.7,33,-99.99,,,-99.99,WSDL version 420,2013-02-22 07:41:00,
2013-02-22 02:46:00,26.1,3.5,29.09,SSE,167,1.0,3.8,33,-99.99,,,-99.99,WSDL version 420,2013-02-22 07:46:00,
2013-02-22 02:51:00,26.2,3.6,29.09,SE,133,2.2,3.1,33,-99.99,,,-99.99,WSDL version 420,2013-02-22 07:51:00,
2013-02-22 02:56:00,26.2,3.7,29.09,SE,128,2.5,3.6,33,-99.99,,,-99.99,WSDL version 420,2013-02-22 07:56:00,
2013-02-22 03:01:00,26.2,3.7,29.09,SE,135,1.8,3.6,33,-99.99,,,-99.99,WSDL version 420,2013-02-22 08:01:00,
2013-02-22 03:06:00,26.2,3.7,29.06,SE,132,2.0,3.1,33,0.00,,,0.00,WSDL version 420,2013-02-22 08:06:00,
2013-02-22 03:11:00,26.3,3.8,29.06,ESE,116,2.1,3.1,33,0.00,,,0.00,WSDL version 420,2013-02-22 08:11:00,
2013-02-22 03:16:00,26.4,3.8,29.06,SE,129,1.6,3.1,33,0.00,,,0.00,WSDL version 420,2013-02-22 08:16:00,
2013-02-22 03:21:00,26.5,3.9,29.03,SE,129,1.7,2.7,33,-99.99,,,-99.99,WSDL version 420,2013-02-22 08:21:00,
2013-02-22 03:26:00,26.6,4.0,29.03,ESE,123,2.2,3.1,33,0.00,,,0.00,WSDL version 420,2013-02-22 08:26:00,
2013-02-22 03:31:00,26.7,4.1,29.03,ESE,110,0.0,3.1,33,0.00,,,0.00,WSDL version 420,2013-02-22 08:31:00,
2013-02-22 03:36:00,26.9,4.3,29.03,SSE,152,0.0,1.6,33,0.00,,,0.00,WSDL version 420,2013-02-22 08:36:00,
2013-02-22 03:41:00,27.0,4.3,29.03,SW,225,0.2,2.0,33,-99.99,,,-99.99,WSDL version 420,2013-02-22 08:41:00,
2013-02-22 03:46:00,27.1,4.5,29.03,SW,225,0.0,2.0,33,-99.99,,,-99.99,WSDL version 420,2013-02-22 08:46:00,
2013-02-22 03:51:00,27.3,4.7,29.03,WSW,253,1.1,2.0,33,-99.99,,,-99.99,WSDL version 420,2013-02-22 08:51:00,
2013-02-22 03:56:00,27.4,4.7,29.03,NW,315,1.5,2.7,33,0.00,,,0.00,WSDL version 420,2013-02-22 08:56:00,
2013-02-22 04:01:00,27.5,4.8,29.03,NW,315,1.3,2.7,33,0.00,,,0.00,WSDL version 420,2013-02-22 09:01:00,
2013-02-22 04:06:00,27.6,4.9,29.03,NW,315,1.2,2.2,33,-99.99,,,-99.99,WSDL version 420,2013-02-22 09:06:00,
2013-02-22 04:11:00,27.7,5.0,29.03,NW,315,0.0,2.2,33,0.00,,,0.00,WSDL version 420,2013-02-22 09:11:00,
2013-02-22 04:16:00,27.9,5.1,29.03,NW,315,0.0,2.0,33,0.00,,,0.00,WSDL version 420,2013-02-22 09:16:00,
2013-02-22 04:21:00,28.0,5.2,29.03,WNW,293,1.6,2.5,33,0.00,,,0.00,WSDL version 420,2013-02-22 09:21:00,
2013-02-22 04:26:00,28.2,5.4,29.03,WNW,293,1.0,2.5,33,-99.99,,,-99.99,WSDL version 420,2013-02-22 09:26:00,
2013-02-22 04:31:00,28.4,5.6,29.03,NW,315,1.2,2.0,33,-99.99,,,-99.99,WSDL version 420,2013-02-22 09:31:00,
2013-02-22 04:36:00,28.5,5.8,29.03,North,357,1.3,2.0,33,-99.99,,,-99.99,WSDL version 420,2013-02-22 09:36:00,
2013-02-22 04:41:00,28.6,5.8,29.03,WNW,293,1.2,2.0,33,-99.99,,,-99.99,WSDL version 420,2013-02-22 09:41:00,
2013-02-22 04:46:00,28.7,5.9,29.03,NNE,28,0.3,2.0,33,-99.99,,,-99.99,WSDL version 420,2013-02-22 09:46:00,
2013-02-22 04:51:00,28.8,6.0,29.03,NW,315,1.1,2.0,33,-99.99,,,-99.99,WSDL version 420,2013-02-22 09:51:00,
2013-02-22 04:56:00,28.9,6.1,29.03,NW,315,0.0,1.6,33,0.00,,,0.00,WSDL version 420,2013-02-22 09:56:00,
2013-02-22 05:01:00,29.1,6.2,29.03,NW,315,0.0,0.9,33,0.00,,,0.00,WSDL version 420,2013-02-22 10:01:00,
2013-02-22 05:06:00,29.2,6.3,29.00,NW,315,0.0,0.0,33,-99.99,,,-99.99,WSDL version 420,2013-02-22 10:06:00,
2013-02-22 05:11:00,29.3,6.5,29.00,South,180,0.0,0.0,33,0.00,,,0.00,WSDL version 420,2013-02-22 10:11:00,
2013-02-22 05:16:00,29.3,6.5,29.00,South,180,0.0,0.9,33,-99.99,,,-99.99,WSDL version 420,2013-02-22 10:16:00,
2013-02-22 05:21:00,29.3,6.5,29.00,South,180,0.0,0.9,33,0.00,,,0.00,WSDL version 420,2013-02-22 10:21:00,
2013-02-22 05:26:00,29.4,6.6,29.00,South,180,0.0,0.0,33,0.00,,,0.00,WSDL version 420,2013-02-22 10:26:00,
2013-02-22 05:31:00,29.5,7.1,29.00,South,180,0.0,0.0,34,0.00,,,0.00,WSDL version 420,2013-02-22 10:31:00,
2013-02-22 05:36:00,29.5,7.2,29.00,South,180,0.0,0.0,34,-99.99,,,-99.99,WSDL version 420,2013-02-22 10:36:00,
2013-02-22 05:41:00,29.5,7.8,29.00,NW,307,1.9,2.5,35,0.00,,,0.00,WSDL version 420,2013-02-22 10:41:00,
2013-02-22 05:46:00,29.7,8.1,29.00,NNW,338,0.1,2.5,36,0.00,,,0.00,WSDL version 420,2013-02-22 10:46:00,
2013-02-22 05:51:00,29.7,8.6,29.00,NNW,338,0.0,2.0,37,-99.99,,,-99.99,WSDL version 420,2013-02-22 10:51:00,
2013-02-22 05:56:00,29.8,9.9,29.00,NNW,338,0.0,0.0,39,-99.99,,,-99.99,WSDL version 420,2013-02-22 10:56:00,
2013-02-22 06:01:00,29.8,10.3,29.00,NNW,338,0.0,0.0,39,0.00,,,0.00,WSDL version 420,2013-02-22 11:01:00,
2013-02-22 06:06:00,29.8,10.0,29.00,WNW,298,0.7,2.0,39,0.00,,,0.00,WSDL version 420,2013-02-22 11:06:00,
2013-02-22 06:11:00,29.8,10.5,29.00,NW,315,0.6,2.5,40,0.00,,,0.00,WSDL version 420,2013-02-22 11:11:00,
2013-02-22 06:16:00,29.9,11.1,29.00,NW,312,0.0,2.5,41,0.00,,,0.00,WSDL version 420,2013-02-22 11:16:00,
2013-02-22 06:21:00,30.0,11.4,29.00,NW,308,2.4,2.7,41,0.00,,,0.00,WSDL version 420,2013-02-22 11:21:00,
2013-02-22 06:26:00,30.0,11.9,29.00,WNW,303,2.4,2.9,42,0.00,,,0.00,WSDL version 420,2013-02-22 11:26:00,
2013-02-22 06:31:00,30.1,12.0,29.00,NW,315,2.4,3.4,42,0.00,,,0.00,WSDL version 420,2013-02-22 11:31:00,
2013-02-22 06:36:00,30.2,12.1,28.97,WSW,250,0.6,3.4,42,-99.99,,,-99.99,WSDL version 420,2013-02-22 11:36:00,
2013-02-22 06:41:00,30.3,12.2,28.97,WNW,293,1.1,2.5,42,-99.99,,,-99.99,WSDL version 420,2013-02-22 11:41:00,
2013-02-22 06:46:00,30.4,12.3,28.97,NW,305,0.7,2.5,42,0.00,,,0.00,WSDL version 420,2013-02-22 11:46:00,
2013-02-22 06:51:00,30.6,12.4,28.97,NW,315,0.0,1.6,42,0.00,,,0.00,WSDL version 420,2013-02-22 11:51:00,
2013-02-22 06:57:00,30.9,12.4,28.97,WNW,295,0.5,1.3,42,0.00,,,0.00,WSDL version 420,2013-02-22 11:57:00,
2013-02-22 07:02:00,30.9,12.7,28.97,West,270,1.1,2.2,42,0.00,,,0.00,WSDL version 420,2013-02-22 12:02:00,
2013-02-22 07:07:00,31.0,12.8,28.97,North,355,1.1,2.5,42,-99.99,,,-99.99,WSDL version 420,2013-02-22 12:07:00,
2013-02-22 07:12:00,30.8,12.7,28.97,North,360,0.0,2.5,42,-99.99,,,-99.99,WSDL version 420,2013-02-22 12:12:00,
2013-02-22 07:17:00,30.4,12.1,28.97,WNW,293,0.0,0.0,42,-99.99,,,-99.99,WSDL version 420,2013-02-22 12:17:00,
2013-02-22 07:22:00,30.3,12.0,28.97,NW,308,1.6,2.2,41,0.00,,,0.00,WSDL version 420,2013-02-22 12:22:00,
2013-02-22 07:27:00,30.5,11.9,28.97,NW,315,1.8,2.2,41,0.00,,,0.00,WSDL version 420,2013-02-22 12:27:00,
2013-02-22 07:32:00,30.8,12.1,28.97,NW,305,2.1,2.5,41,0.00,,,0.00,WSDL version 420,2013-02-22 12:32:00,
2013-02-22 07:37:00,31.1,12.4,28.94,NW,315,1.8,2.5,41,0.00,,,0.00,WSDL version 420,2013-02-22 12:37:00,
2013-02-22 07:42:00,31.4,13.0,28.94,WNW,300,1.5,2.5,42,0.00,,,0.00,WSDL version 420,2013-02-22 12:42:00,
2013-02-22 07:48:00,31.9,13.6,28.94,NNW,329,1.3,2.5,42,-99.99,,,-99.99,WSDL version 420,2013-02-22 12:48:00,
2013-02-22 07:53:00,32.2,11.5,28.97,NW,315,0.2,2.2,41,-99.99,,,-99.99,WSDL version 420,2013-02-22 12:53:00,
2013-02-22 07:58:00,32.3,11.2,28.97,WNW,293,0.6,2.2,41,-99.99,,,-99.99,WSDL version 420,2013-02-22 12:58:00,
2013-02-22 08:04:00,32.5,11.4,28.97,NNW,333,0.4,2.2,41,-99.99,,,-99.99,WSDL version 420,2013-02-22 13:04:00,
2013-02-22 08:09:00,32.7,11.4,28.94,NNW,338,0.0,1.6,41,0.00,,,0.00,WSDL version 420,2013-02-22 13:09:00,
2013-02-22 08:14:00,32.8,11.6,28.94,NNW,338,0.0,0.0,41,0.00,,,0.00,WSDL version 420,2013-02-22 13:14:00,
2013-02-22 08:19:00,33.0,11.8,28.94,WNW,293,1.2,2.0,41,-99.99,,,-99.99,WSDL version 420,2013-02-22 13:19:00,
2013-02-22 08:24:00,33.2,12.0,28.94,WNW,293,0.1,2.0,41,0.00,,,0.00,WSDL version 420,2013-02-22 13:24:00,
2013-02-22 08:30:00,33.5,12.4,28.94,West,270,0.0,1.6,41,0.00,,,0.00,WSDL version 420,2013-02-22 13:30:00,
2013-02-22 08:35:00,33.6,12.4,28.94,West,270,1.3,2.2,41,-99.99,,,-99.99,WSDL version 420,2013-02-22 13:35:00,
2013-02-22 08:40:00,33.7,12.2,28.94,NNW,340,1.1,2.2,40,-99.99,,,-99.99,WSDL version 420,2013-02-22 13:40:00,
2013-02-22 08:45:00,34.0,12.2,28.94,NW,320,1.4,2.2,40,-99.99,,,-99.99,WSDL version 420,2013-02-22 13:45:00,
2013-02-22 08:50:00,34.0,12.2,28.97,NNW,338,0.6,2.2,40,-99.99,,,-99.99,WSDL version 420,2013-02-22 13:50:00,
2013-02-22 08:56:00,34.0,12.5,28.97,North,358,0.0,2.0,41,-99.99,,,-99.99,WSDL version 420,2013-02-22 13:56:00,
2013-02-22 09:01:00,34.0,12.9,28.97,SSE,158,0.0,0.0,42,0.00,,,0.00,WSDL version 420,2013-02-22 14:01:00,
2013-02-22 09:06:00,33.8,13.1,28.94,SSE,158,0.0,0.0,42,0.00,,,0.00,WSDL version 420,2013-02-22 14:06:00,
2013-02-22 09:11:00,33.8,13.7,28.94,SSE,158,0.0,0.0,43,-99.99,,,-99.99,WSDL version 420,2013-02-22 14:11:00,
2013-02-22 09:16:00,34.0,14.3,28.94,SSE,158,0.0,0.0,44,-99.99,,,-99.99,WSDL version 420,2013-02-22 14:16:00,
2013-02-22 09:21:00,34.2,14.4,28.94,SSE,158,0.0,0.0,44,0.00,,,0.00,WSDL version 420,2013-02-22 14:21:00,
2013-02-22 09:26:00,34.1,15.1,28.94,SSE,158,0.0,0.0,46,0.00,,,0.00,WSDL version 420,2013-02-22 14:26:00,
2013-02-22 09:32:00,34.0,16.0,28.94,SSE,158,0.0,0.0,48,-99.99,,,-99.99,WSDL version 420,2013-02-22 14:32:00,
2013-02-22 09:37:00,34.1,16.5,28.94,SSE,158,0.0,0.0,49,-99.99,,,-99.99,WSDL version 420,2013-02-22 14:37:00,
2013-02-22 09:42:00,34.3,16.8,28.94,SSE,158,0.0,0.0,48,-99.99,,,-99.99,WSDL version 420,2013-02-22 14:42:00,
2013-02-22 09:47:00,34.1,17.0,28.94,SSE,158,0.0,0.0,49,0.00,,,0.00,WSDL version 420,2013-02-22 14:47:00,
2013-02-22 09:52:00,34.2,17.5,28.94,SSE,158,0.0,0.0,50,-99.99,,,-99.99,WSDL version 420,2013-02-22 14:52:00,
2013-02-22 09:57:00,34.4,17.7,28.94,SSE,158,0.0,0.0,51,0.00,,,0.00,WSDL version 420,2013-02-22 14:57:00,
2013-02-22 10:02:00,34.6,18.3,28.94,SSE,158,0.0,0.0,51,0.00,,,0.00,WSDL version 420,2013-02-22 15:02:00,
2013-02-22 10:07:00,34.9,19.0,28.94,SSE,158,0.0,0.0,52,-99.99,,,-99.99,WSDL version 420,2013-02-22 15:07:00,
2013-02-22 10:12:00,34.8,19.1,28.94,SSE,158,0.0,1.6,52,-99.99,,,-99.99,WSDL version 420,2013-02-22 15:12:00,
2013-02-22 10:17:00,34.8,19.0,28.94,SSE,158,0.0,1.6,52,-99.99,,,-99.99,WSDL version 420,2013-02-22 15:17:00,
2013-02-22 10:22:00,34.8,19.0,28.94,SSE,158,0.0,1.3,52,0.00,,,0.00,WSDL version 420,2013-02-22 15:22:00,
2013-02-22 10:27:00,34.9,19.1,28.94,SSE,158,0.0,0.0,52,-99.99,,,-99.99,WSDL version 420,2013-02-22 15:27:00,
2013-02-22 10:32:00,35.1,19.2,28.94,SSE,158,0.0,0.0,52,0.00,,,0.00,WSDL version 420,2013-02-22 15:32:00,
2013-02-22 10:37:00,35.2,19.7,28.94,SSE,158,0.0,0.0,54,-99.99,,,-99.99,WSDL version 420,2013-02-22 15:37:00,
2013-02-22 10:42:00,35.5,20.5,28.94,SW,225,0.0,0.0,54,0.00,,,0.00,WSDL version 420,2013-02-22 15:42:00,
2013-02-22 10:47:00,35.8,21.5,28.94,WNW,293,1.7,2.7,57,-99.99,,,-99.99,WSDL version 420,2013-02-22 15:47:00,
2013-02-22 10:52:00,36.1,22.8,28.94,WNW,293,0.8,2.7,58,-99.99,,,-99.99,WSDL version 420,2013-02-22 15:52:00,
2013-02-22 10:57:00,36.4,23.5,28.94,West,270,1.7,2.2,60,0.00,,,0.00,WSDL version 420,2013-02-22 15:57:00,
2013-02-22 11:02:00,37.0,24.8,28.94,West,270,0.4,2.2,61,-99.99,,,-99.99,WSDL version 420,2013-02-22 16:02:00,
2013-02-22 11:07:00,37.5,25.4,28.94,West,270,0.2,2.0,62,0.00,,,0.00,WSDL version 420,2013-02-22 16:07:00,
2013-02-22 11:12:00,37.7,25.9,28.94,West,270,0.0,2.0,62,0.00,,,0.00,WSDL version 420,2013-02-22 16:12:00,
2013-02-22 11:17:00,37.9,25.8,28.94,West,270,0.0,0.0,61,-99.99,,,-99.99,WSDL version 420,2013-02-22 16:17:00,
2013-02-22 11:22:00,38.0,25.8,28.94,SW,225,0.0,0.0,61,0.00,,,0.00,WSDL version 420,2013-02-22 16:22:00,
2013-02-22 11:27:00,38.2,26.0,28.94,SW,225,0.0,0.9,61,-99.99,,,-99.99,WSDL version 420,2013-02-22 16:27:00,
2013-02-22 11:32:00,38.6,26.7,28.94,SW,225,0.0,0.9,62,0.00,,,0.00,WSDL version 420,2013-02-22 16:32:00,
2013-02-22 11:37:00,38.9,27.0,28.94,ESE,105,1.8,2.9,62,0.00,,,0.00,WSDL version 420,2013-02-22 16:37:00,
2013-02-22 11:42:00,39.2,27.4,28.94,South,174,1.6,2.9,63,-99.99,,,-99.99,WSDL version 420,2013-02-22 16:42:00,
2013-02-22 11:47:00,39.5,28.4,28.94,SE,135,1.4,2.7,65,-99.99,,,-99.99,WSDL version 420,2013-02-22 16:47:00,
2013-02-22 11:52:00,40.0,29.1,28.94,SE,135,1.2,2.5,65,-99.99,,,-99.99,WSDL version 420,2013-02-22 16:52:00,
2013-02-22 11:57:00,40.4,29.6,28.94,SE,135,0.0,1.6,65,-99.99,,,-99.99,WSDL version 420,2013-02-22 16:57:00,
2013-02-22 12:02:00,41.1,30.1,28.94,SSE,153,0.0,0.0,64,0.00,,,0.00,WSDL version 420,2013-02-22 17:02:00,
2013-02-22 12:07:00,41.9,31.0,28.94,SSE,158,0.0,0.0,65,-99.99,,,-99.99,WSDL version 420,2013-02-22 17:07:00,
2013-02-22 12:12:00,43.1,32.1,28.94,SE,128,1.3,2.2,65,0.00,,,0.00,WSDL version 420,2013-02-22 17:12:00,
2013-02-22 12:17:00,43.8,32.2,28.94,East,100,2.2,2.7,62,-99.99,,,-99.99,WSDL version 420,2013-02-22 17:17:00,
2013-02-22 12:22:00,43.9,31.4,28.94,ESE,103,1.9,2.9,60,0.00,,,0.00,WSDL version 420,2013-02-22 17:22:00,
2013-02-22 12:27:00,44.4,30.9,28.94,SE,138,1.0,2.9,58,0.00,,,0.00,WSDL version 420,2013-02-22 17:27:00,
2013-02-22 12:32:00,44.7,30.5,28.94,ESE,113,0.1,2.2,57,0.00,,,0.00,WSDL version 420,2013-02-22 17:32:00,
2013-02-22 12:37:00,45.3,30.6,28.91,ESE,113,0.1,2.2,56,-99.99,,,-99.99,WSDL version 420,2013-02-22 17:37:00,
2013-02-22 12:42:00,45.5,30.1,28.91,ENE,68,0.7,2.5,54,-99.99,,,-99.99,WSDL version 420,2013-02-22 17:42:00,
2013-02-22 12:47:00,46.0,30.1,28.91,ESE,108,0.0,2.5,54,0.00,,,0.00,WSDL version 420,2013-02-22 17:47:00,
2013-02-22 12:52:00,46.8,30.6,28.94,ESE,113,1.1,2.5,52,0.00,,,0.00,WSDL version 420,2013-02-22 17:52:00,
2013-02-22 12:57:00,47.3,30.4,28.94,East,93,1.1,2.5,51,0.00,,,0.00,WSDL version 420,2013-02-22 17:57:00,
2013-02-22 13:02:00,47.6,30.1,28.94,East,101,1.7,2.5,50,-99.99,,,-99.99,WSDL version 420,2013-02-22 18:02:00,
2013-02-22 13:07:00,47.8,29.6,28.91,SSE,158,0.5,2.5,49,-99.99,,,-99.99,WSDL version 420,2013-02-22 18:07:00,
2013-02-22 13:12:00,47.9,29.3,28.91,SE,135,1.0,2.2,48,-99.99,,,-99.99,WSDL version 420,2013-02-22 18:12:00,
2013-02-22 13:17:00,47.9,29.2,28.91,ESE,113,0.0,2.2,48,0.00,,,0.00,WSDL version 420,2013-02-22 18:17:00,
2013-02-22 13:22:00,48.5,29.4,28.91,NE,53,0.4,1.3,47,0.00,,,0.00,WSDL version 420,2013-02-22 18:22:00,
2013-02-22 13:27:00,48.5,29.2,28.91,SSE,158,0.0,1.3,47,-99.99,,,-99.99,WSDL version 420,2013-02-22 18:27:00,
2013-02-22 13:32:00,48.3,28.8,28.91,East,90,0.3,2.2,46,-99.99,,,-99.99,WSDL version 420,2013-02-22 18:32:00,
2013-02-22 13:37:00,48.9,29.4,28.91,East,90,0.3,2.2,47,-99.99,,,-99.99,WSDL version 420,2013-02-22 18:37:00,
2013-02-22 13:42:00,49.8,29.5,28.91,SE,125,1.1,2.0,45,0.00,,,0.00,WSDL version 420,2013-02-22 18:42:00,
2013-02-22 13:47:00,49.5,28.5,28.91,South,180,0.0,2.0,44,-99.99,,,-99.99,WSDL version 420,2013-02-22 18:47:00,
2013-02-22 13:52:00,50.0,28.5,28.91,ESE,110,0.3,2.7,43,-99.99,,,-99.99,WSDL version 420,2013-02-22 18:52:00,
2013-02-22 13:57:00,50.4,28.3,28.91,South,190,0.9,2.7,41,-99.99,,,-99.99,WSDL version 420,2013-02-22 18:57:00,
2013-02-22 14:02:00,50.3,27.3,28.91,NNE,23,0.4,2.0,40,-99.99,,,-99.99,WSDL version 420,2013-02-22 19:02:00,
2013-02-22 14:07:00,50.3,26.9,28.91,SSE,158,0.0,2.0,40,0.00,,,0.00,WSDL version 420,2013-02-22 19:07:00,
2013-02-22 14:12:00,50.5,26.9,28.91,SSE,158,0.0,1.3,39,0.00,,,0.00,WSDL version 420,2013-02-22 19:12:00,
2013-02-22 14:17:00,50.1,26.1,28.91,SE,135,0.0,1.3,39,0.00,,,0.00,WSDL version 420,2013-02-22 19:17:00,
2013-02-22 14:22:00,49.4,25.5,28.91,SSE,158,0.3,1.1,39,0.00,,,0.00,WSDL version 420,2013-02-22 19:22:00,
2013-02-22 14:27:00,49.3,25.4,28.91,ESE,121,0.1,1.6,39,-99.99,,,-99.99,WSDL version 420,2013-02-22 19:27:00,
2013-02-22 14:32:00,49.2,25.3,28.91,South,180,0.0,1.6,39,0.00,,,0.00,WSDL version 420,2013-02-22 19:32:00,
2013-02-22 14:37:00,49.1,25.2,28.91,SE,146,0.4,2.7,39,0.00,,,0.00,WSDL version 420,2013-02-22 19:37:00,
2013-02-22 14:42:00,49.2,25.8,28.91,SE,135,0.0,2.7,40,0.00,,,0.00,WSDL version 420,2013-02-22 19:42:00,
2013-02-22 14:47:00,49.5,26.2,28.91,SE,135,0.0,0.0,40,-99.99,,,-99.99,WSDL version 420,2013-02-22 19:47:00,
2013-02-22 14:52:00,49.7,26.4,28.91,SE,135,0.0,0.0,40,0.00,,,0.00,WSDL version 420,2013-02-22 19:52:00,
2013-02-22 14:57:00,50.2,26.8,28.91,SE,135,0.0,0.0,40,0.00,,,0.00,WSDL version 420,2013-02-22 19:57:00,
2013-02-22 15:02:00,50.2,26.8,28.91,SE,135,0.0,0.0,40,-99.99,,,-99.99,WSDL version 420,2013-02-22 20:02:00,
2013-02-22 15:07:00,50.5,26.9,28.91,SSE,165,0.0,1.3,39,0.00,,,0.00,WSDL version 420,2013-02-22 20:07:00,
2013-02-22 15:12:00,50.5,26.4,28.91,South,180,1.2,2.2,39,0.00,,,0.00,WSDL version 420,2013-02-22 20:12:00,
2013-02-22 15:17:00,50.5,26.5,28.91,East,98,0.0,2.2,39,0.00,,,0.00,WSDL version 420,2013-02-22 20:17:00,
2013-02-22 15:22:00,50.5,26.5,28.91,SE,135,1.1,2.7,39,0.00,,,0.00,WSDL version 420,2013-02-22 20:22:00,
2013-02-22 15:27:00,50.5,25.8,28.91,ESE,103,2.0,3.8,38,-99.99,,,-99.99,WSDL version 420,2013-02-22 20:27:00,
2013-02-22 15:32:00,50.5,25.8,28.91,ESE,103,2.4,3.8,38,-99.99,,,-99.99,WSDL version 420,2013-02-22 20:32:00,
2013-02-22 15:37:00,50.5,25.9,28.91,ESE,110,1.9,4.0,38,-99.99,,,-99.99,WSDL version 420,2013-02-22 20:37:00,
2013-02-22 15:42:00,50.6,26.0,28.91,ESE,107,0.9,4.0,38,0.00,,,0.00,WSDL version 420,2013-02-22 20:42:00,
2013-02-22 15:47:00,50.6,25.9,28.91,ESE,118,2.1,2.7,38,-99.99,,,-99.99,WSDL version 420,2013-02-22 20:47:00,
2013-02-22 15:52:00,50.7,26.1,28.91,ESE,113,1.6,2.7,38,0.00,,,0.00,WSDL version 420,2013-02-22 20:52:00,
2013-02-22 15:57:00,50.9,26.2,28.91,ESE,107,1.6,2.9,38,-99.99,,,-99.99,WSDL version 420,2013-02-22 20:57:00,
2013-02-22 16:02:00,51.2,26.4,28.91,SE,135,1.1,2.9,38,-99.99,,,-99.99,WSDL version 420,2013-02-22 21:02:00,
2013-02-22 16:07:00,51.4,26.6,28.91,ESE,113,0.2,2.2,38,-99.99,,,-99.99,WSDL version 420,2013-02-22 21:07:00,
2013-02-22 16:12:00,51.4,26.1,28.91,ESE,118,0.6,2.2,37,-99.99,,,-99.99,WSDL version 420,2013-02-22 21:12:00,
2013-02-22 16:17:00,51.3,25.9,28.91,SE,135,0.0,1.6,37,-99.99,,,-99.99,WSDL version 420,2013-02-22 21:17:00,
2013-02-22 16:22:00,51.1,25.7,28.88,South,186,0.9,1.6,37,0.00,,,0.00,WSDL version 420,2013-02-22 21:22:00,
2013-02-22 16:27:00,51.0,25.7,28.88,SE,135,1.3,2.0,37,0.00,,,0.00,WSDL version 420,2013-02-22 21:27:00,
2013-02-22 16:32:00,51.3,25.9,28.88,South,172,0.6,3.6,37,0.00,,,0.00,WSDL version 420,2013-02-22 21:32:00,
2013-02-22 16:37:00,51.1,25.8,28.88,East,88,0.8,3.8,37,0.00,,,0.00,WSDL version 420,2013-02-22 21:37:00,
2013-02-22 16:42:00,50.7,24.9,28.88,ESE,123,0.9,4.7,36,-99.99,,,-99.99,WSDL version 420,2013-02-22 21:42:00,
2013-02-22 16:47:00,50.3,24.4,28.88,South,186,2.0,4.7,36,-99.99,,,-99.99,WSDL version 420,2013-02-22 21:47:00,
2013-02-22 16:52:00,50.2,24.6,28.88,SE,143,0.3,3.1,37,-99.99,,,-99.99,WSDL version 420,2013-02-22 21:52:00,
2013-02-22 16:57:00,50.2,24.9,28.88,SW,225,0.0,2.9,37,0.00,,,0.00,WSDL version 420,2013-02-22 21:57:00,
2013-02-22 17:02:00,50.1,24.9,28.88,ESE,110,1.5,2.9,37,0.00,,,0.00,WSDL version 420,2013-02-22 22:02:00,
2013-02-22 17:07:00,50.2,24.9,28.88,ESE,113,1.4,2.9,37,-99.99,,,-99.99,WSDL version 420,2013-02-22 22:07:00,
2013-02-22 17:12:00,50.4,25.1,28.88,ESE,113,0.7,2.7,37,-99.99,,,-99.99,WSDL version 420,2013-02-22 22:12:00,
2013-02-22 17:17:00,50.1,24.8,28.88,ESE,113,0.5,2.7,37,-99.99,,,-99.99,WSDL version 420,2013-02-22 22:17:00,
2013-02-22 17:22:00,49.6,24.4,28.88,ESE,113,0.9,2.2,37,0.00,,,0.00,WSDL version 420,2013-02-22 22:22:00,
2013-02-22 17:27:00,49.2,24.0,28.88,ESE,113,0.6,2.0,37,0.00,,,0.00,WSDL version 420,2013-02-22 22:27:00,
2013-02-22 17:32:00,48.5,23.4,28.88,SSW,205,1.0,2.0,37,0.00,,,0.00,WSDL version 420,2013-02-22 22:32:00,
2013-02-22 17:37:00,47.3,23.0,28.88,WNW,293,0.3,2.2,38,-99.99,,,-99.99,WSDL version 420,2013-02-22 22:37:00,
2013-02-22 17:42:00,46.3,22.4,28.88,WNW,293,0.0,2.2,39,-99.99,,,-99.99,WSDL version 420,2013-02-22 22:42:00,
2013-02-22 17:47:00,45.6,22.3,28.88,WNW,293,0.0,0.0,39,0.00,,,0.00,WSDL version 420,2013-02-22 22:47:00,
2013-02-22 17:52:00,44.8,22.2,28.88,WNW,293,0.0,2.0,41,0.00,,,0.00,WSDL version 420,2013-02-22 22:52:00,
2013-02-22 17:57:00,44.1,21.9,28.88,WNW,293,1.1,2.0,41,-99.99,,,-99.99,WSDL version 420,2013-02-22 22:57:00,
2013-02-22 18:02:00,43.4,22.0,28.88,NW,315,0.0,2.5,43,0.00,,,0.00,WSDL version 420,2013-02-22 23:02:00,
2013-02-22 18:07:00,42.2,21.7,28.88,NW,315,0.0,2.5,43,-99.99,,,-99.99,WSDL version 420,2013-02-22 23:07:00,
2013-02-22 18:13:00,41.1,21.0,28.88,NW,315,0.0,0.0,45,-99.99,,,-99.99,WSDL version 420,2013-02-22 23:13:00,
2013-02-22 18:18:00,40.5,21.4,28.88,NW,315,1.7,2.9,47,0.00,,,0.00,WSDL version 420,2013-02-22 23:18:00,
2013-02-22 18:23:00,40.0,22.2,28.88,NW,308,0.4,2.9,49,-99.99,,,-99.99,WSDL version 420,2013-02-22 23:23:00,
2013-02-22 18:28:00,39.5,21.9,28.88,West,270,0.1,2.7,49,-99.99,,,-99.99,WSDL version 420,2013-02-22 23:28:00,
2013-02-22 18:33:00,39.0,22.0,28.88,West,270,0.0,2.7,51,0.00,,,0.00,WSDL version 420,2013-02-22 23:33:00,
2013-02-22 18:38:00,38.5,21.9,28.88,West,270,0.0,0.0,51,-99.99,,,-99.99,WSDL version 420,2013-02-22 23:38:00,
2013-02-22 18:43:00,38.1,22.1,28.88,West,270,1.1,1.6,53,-99.99,,,-99.99,WSDL version 420,2013-02-22 23:43:00,
2013-02-22 18:48:00,37.9,22.1,28.88,NW,313,2.1,2.5,54,0.00,,,0.00,WSDL version 420,2013-02-22 23:48:00,
2013-02-22 18:53:00,38.2,23.8,28.88,WNW,293,1.2,2.5,57,-99.99,,,-99.99,WSDL version 420,2013-02-22 23:53:00,
2013-02-22 18:58:00,38.1,24.2,28.88,WNW,293,0.7,2.2,57,-99.99,,,-99.99,WSDL version 420,2013-02-22 23:58:00,
2013-02-22 19:03:00,37.7,24.1,28.88,WNW,293,0.0,2.0,58,0.00,,,0.00,WSDL version 420,2013-02-23 00:03:00,
2013-02-22 19:08:00,37.5,24.1,28.88,WNW,293,0.0,0.0,58,0.00,,,0.00,WSDL version 420,2013-02-23 00:08:00,
2013-02-22 19:13:00,37.4,24.1,28.88,WNW,293,0.0,0.0,59,-99.99,,,-99.99,WSDL version 420,2013-02-23 00:13:00,
2013-02-22 19:18:00,37.3,24.3,28.88,WNW,293,0.0,0.0,59,-99.99,,,-99.99,WSDL version 420,2013-02-23 00:18:00,
2013-02-22 19:23:00,36.9,23.9,28.88,WNW,293,0.0,0.0,59,0.00,,,0.00,WSDL version 420,2013-02-23 00:23:00,
2013-02-22 19:29:00,36.8,24.2,28.88,WNW,293,0.0,1.3,60,-99.99,,,-99.99,WSDL version 420,2013-02-23 00:29:00,
2013-02-22 19:34:00,36.7,24.1,28.88,WNW,293,1.4,2.5,60,-99.99,,,-99.99,WSDL version 420,2013-02-23 00:34:00,
2013-02-22 19:39:00,36.4,23.8,28.88,WNW,293,0.0,2.5,60,0.00,,,0.00,WSDL version 420,2013-02-23 00:39:00,
2013-02-22 19:44:00,36.1,23.8,28.88,WNW,293,0.8,1.6,61,-99.99,,,-99.99,WSDL version 420,2013-02-23 00:44:00,
2013-02-22 19:49:00,36.2,24.5,28.88,WNW,293,0.0,1.6,63,0.00,,,0.00,WSDL version 420,2013-02-23 00:49:00,
2013-02-22 19:54:00,36.1,24.8,28.91,WNW,293,0.0,0.0,64,0.00,,,0.00,WSDL version 420,2013-02-23 00:54:00,
2013-02-22 19:59:00,36.1,25.1,28.91,WNW,293,0.0,0.0,64,-99.99,,,-99.99,WSDL version 420,2013-02-23 00:59:00,
2013-02-22 20:04:00,36.0,25.2,28.91,WNW,293,0.0,0.0,65,-99.99,,,-99.99,WSDL version 420,2013-02-23 01:04:00,
2013-02-22 20:09:00,35.8,25.1,28.91,WNW,293,0.0,0.0,65,0.00,,,0.00,WSDL version 420,2013-02-23 01:09:00,
2013-02-22 20:15:00,36.0,25.6,28.91,WNW,293,0.0,0.0,66,-99.99,,,-99.99,WSDL version 420,2013-02-23 01:15:00,
2013-02-22 20:20:00,36.1,26.2,28.91,WNW,293,0.0,0.0,67,-99.99,,,-99.99,WSDL version 420,2013-02-23 01:20:00,
2013-02-22 20:26:00,36.3,26.7,28.91,WNW,293,0.0,0.0,68,-99.99,,,-99.99,WSDL version 420,2013-02-23 01:26:00,
2013-02-22 20:31:00,36.7,27.3,28.91,WNW,293,0.0,0.0,69,0.00,,,0.00,WSDL version 420,2013-02-23 01:31:00,
2013-02-22 20:36:00,36.8,27.6,28.91,WNW,293,0.0,0.0,69,-99.99,,,-99.99,WSDL version 420,2013-02-23 01:36:00,
2013-02-22 20:41:00,36.9,27.7,28.91,WNW,293,0.0,0.0,69,-99.99,,,-99.99,WSDL version 420,2013-02-23 01:41:00,
2013-02-22 20:46:00,36.9,27.5,28.91,WNW,293,0.0,0.0,68,-99.99,,,-99.99,WSDL version 420,2013-02-23 01:46:00,
2013-02-22 20:51:00,36.9,27.6,28.91,WNW,293,0.0,0.0,69,-99.99,,,-99.99,WSDL version 420,2013-02-23 01:51:00,
2013-02-22 20:57:00,37.0,27.8,28.91,WNW,293,0.0,0.0,69,-99.99,,,-99.99,WSDL version 420,2013-02-23 01:57:00,
2013-02-22 21:03:00,37.0,27.8,28.91,WNW,293,0.0,0.0,69,-99.99,,,-99.99,WSDL version 420,2013-02-23 02:03:00,
2013-02-22 21:08:00,37.0,27.8,28.88,WNW,293,0.0,0.0,69,-99.99,,,-99.99,WSDL version 420,2013-02-23 02:08:00,
2013-02-22 21:14:00,37.0,27.8,28.88,WNW,293,0.0,0.0,69,-99.99,,,-99.99,WSDL version 420,2013-02-23 02:14:00,
2013-02-22 21:19:00,37.0,27.8,28.88,West,270,0.0,0.0,69,0.00,,,0.00,WSDL version 420,2013-02-23 02:19:00,
2013-02-22 21:24:00,36.8,27.6,28.88,West,270,0.0,0.0,69,-99.99,,,-99.99,WSDL version 420,2013-02-23 02:24:00,
2013-02-22 21:29:00,36.7,27.4,28.88,West,270,0.0,0.0,69,0.00,,,0.00,WSDL version 420,2013-02-23 02:29:00,
2013-02-22 21:34:00,36.6,27.4,28.88,West,270,0.0,0.0,69,-99.99,,,-99.99,WSDL version 420,2013-02-23 02:34:00,
2013-02-22 21:39:00,36.3,27.1,28.88,SE,135,0.0,0.0,69,0.00,,,0.00,WSDL version 420,2013-02-23 02:39:00,
2013-02-22 21:44:00,36.0,26.8,28.88,SE,135,0.0,0.0,69,0.00,,,0.00,WSDL version 420,2013-02-23 02:44:00,
2013-02-22 21:49:00,35.8,26.4,28.88,NNW,338,0.0,0.0,69,-99.99,,,-99.99,WSDL version 420,2013-02-23 02:49:00,
2013-02-22 21:54:00,35.3,26.1,28.88,NNW,338,0.0,0.0,69,0.00,,,0.00,WSDL version 420,2013-02-23 02:54:00,
2013-02-22 21:59:00,34.9,25.6,28.88,NNW,338,0.0,0.0,69,0.00,,,0.00,WSDL version 420,2013-02-23 02:59:00,
2013-02-22 22:04:00,34.9,26.0,28.88,NNW,338,0.0,0.0,70,0.00,,,0.00,WSDL version 420,2013-02-23 03:04:00,
2013-02-22 22:09:00,34.6,25.8,28.91,NNW,338,0.0,0.0,70,-99.99,,,-99.99,WSDL version 420,2013-02-23 03:09:00,
2013-02-22 22:14:00,34.3,25.6,28.91,NNW,338,0.0,0.0,70,-99.99,,,-99.99,WSDL version 420,2013-02-23 03:14:00,
2013-02-22 22:19:00,34.1,25.1,28.91,NNW,338,0.0,0.0,69,-99.99,,,-99.99,WSDL version 420,2013-02-23 03:19:00,
2013-02-22 22:24:00,33.8,24.7,28.91,NNW,338,1.1,1.6,69,0.00,,,0.00,WSDL version 420,2013-02-23 03:24:00,
2013-02-22 22:29:00,33.7,24.6,28.91,NW,323,1.5,2.5,69,0.00,,,0.00,WSDL version 420,2013-02-23 03:29:00,
2013-02-22 22:34:00,34.1,25.4,28.91,NW,315,0.0,2.5,71,0.00,,,0.00,WSDL version 420,2013-02-23 03:34:00,
2013-02-22 22:39:00,34.0,25.5,28.91,NW,315,0.0,0.9,71,-99.99,,,-99.99,WSDL version 420,2013-02-23 03:39:00,
2013-02-22 22:44:00,33.8,25.4,28.91,NW,315,0.0,0.0,71,0.00,,,0.00,WSDL version 420,2013-02-23 03:44:00,
2013-02-22 22:49:00,33.8,25.6,28.91,NW,315,0.0,0.0,72,-99.99,,,-99.99,WSDL version 420,2013-02-23 03:49:00,
2013-02-22 22:55:00,34.0,26.2,28.91,NW,315,0.0,0.0,73,0.00,,,0.00,WSDL version 420,2013-02-23 03:55:00,
2013-02-22 23:00:00,33.8,26.1,28.91,NW,315,0.0,0.0,73,-99.99,,,-99.99,WSDL version 420,2013-02-23 04:00:00,
2013-02-22 23:05:00,34.0,26.4,28.91,NW,315,0.0,0.0,73,-99.99,,,-99.99,WSDL version 420,2013-02-23 04:05:00,
2013-02-22 23:10:00,33.8,26.1,28.91,NW,315,0.0,0.0,73,-99.99,,,-99.99,WSDL version 420,2013-02-23 04:10:00,
2013-02-22 23:15:00,33.6,25.9,28.91,NW,315,0.0,0.0,73,-99.99,,,-99.99,WSDL version 420,2013-02-23 04:15:00,
2013-02-22 23:20:00,33.6,26.2,28.91,NW,315,0.0,0.0,74,-99.99,,,-99.99,WSDL version 420,2013-02-23 04:20:00,
2013-02-22 23:25:00,33.6,26.1,28.91,NW,315,0.0,0.0,73,0.00,,,0.00,WSDL version 420,2013-02-23 04:25:00,
2013-02-22 23:30:00,33.5,26.0,28.91,NW,315,0.0,0.0,74,-99.99,,,-99.99,WSDL version 420,2013-02-23 04:30:00,
2013-02-22 23:35:00,33.6,26.2,28.91,NW,315,0.0,0.0,74,-99.99,,,-99.99,WSDL version 420,2013-02-23 04:35:00,
2013-02-22 23:40:00,33.6,26.2,28.91,NW,315,0.0,0.0,74,-99.99,,,-99.99,WSDL version 420,2013-02-23 04:40:00,
2013-02-22 23:45:00,33.6,26.2,28.91,NW,315,0.0,0.0,74,-99.99,,,-99.99,WSDL version 420,2013-02-23 04:45:00,
2013-02-22 23:50:00,33.6,26.2,28.88,NW,315,0.0,0.0,74,0.00,,,0.00,WSDL version 420,2013-02-23 04:50:00,
2013-02-22 23:55:00,33.4,26.0,28.88,NW,315,0.0,0.0,74,0.00,,,0.00,WSDL version 420,2013-02-23 04:55:00,